﻿測定場所 (Monitoring sites),日付 (Measurement date),時間 (Measurement time),線量率 最大値 (max) μGy/h,線量率 最小値 (min) μGy/h,線量率 平均値 (average) μGy/h,
新宿 (Shinjuku),2011-03-27,23:00～23:59,0.116,0.109,0.112,
新宿 (Shinjuku),2011-03-27,22:00～22:59,0.115,0.108,0.112,
新宿 (Shinjuku),2011-03-27,21:00～21:59,0.117,0.108,0.113,
新宿 (Shinjuku),2011-03-27,20:00～20:59,0.117,0.110,0.113,
新宿 (Shinjuku),2011-03-27,19:00～19:59,0.116,0.111,0.114,
新宿 (Shinjuku),2011-03-27,18:00～18:59,0.116,0.110,0.114,
新宿 (Shinjuku),2011-03-27,17:00～17:59,0.117,0.111,0.114,
新宿 (Shinjuku),2011-03-27,16:00～16:59,0.117,0.112,0.114,
新宿 (Shinjuku),2011-03-27,15:00～15:59,0.118,0.112,0.115,
新宿 (Shinjuku),2011-03-27,14:00～14:59,0.119,0.112,0.116,
新宿 (Shinjuku),2011-03-27,13:00～13:59,0.119,0.113,0.116,
新宿 (Shinjuku),2011-03-27,12:00～12:59,0.120,0.112,0.116,
新宿 (Shinjuku),2011-03-27,11:00～11:59,0.120,0.111,0.116,
新宿 (Shinjuku),2011-03-27,10:00～10:59,0.120,0.114,0.116,
新宿 (Shinjuku),2011-03-27,09:00～09:59,0.120,0.112,0.116,
新宿 (Shinjuku),2011-03-27,08:00～08:59,0.119,0.112,0.117,
新宿 (Shinjuku),2011-03-27,07:00～07:59,0.121,0.114,0.118,
新宿 (Shinjuku),2011-03-27,06:00～06:59,0.120,0.114,0.117,
新宿 (Shinjuku),2011-03-27,05:00～05:59,0.120,0.113,0.117,
新宿 (Shinjuku),2011-03-27,04:00～04:59,0.120,0.113,0.117,
新宿 (Shinjuku),2011-03-27,03:00～03:59,0.121,0.112,0.117,
新宿 (Shinjuku),2011-03-27,02:00～02:59,0.121,0.114,0.118,
新宿 (Shinjuku),2011-03-27,01:00～01:59,0.122,0.115,0.118,
新宿 (Shinjuku),2011-03-27,00:00～00:59,0.122,0.114,0.118,
新宿 (Shinjuku),2011-03-26,23:00～23:59,0.122,0.114,0.119,
新宿 (Shinjuku),2011-03-26,22:00～22:59,0.122,0.115,0.119,
新宿 (Shinjuku),2011-03-26,21:00～21:59,0.123,0.116,0.119,
新宿 (Shinjuku),2011-03-26,20:00～20:59,0.122,0.116,0.119,
新宿 (Shinjuku),2011-03-26,19:00～19:59,0.121,0.116,0.119,
新宿 (Shinjuku),2011-03-26,18:00～18:59,0.123,0.116,0.118,
新宿 (Shinjuku),2011-03-26,17:00～17:59,0.122,0.115,0.119,
新宿 (Shinjuku),2011-03-26,16:00～16:59,0.124,0.117,0.120,
新宿 (Shinjuku),2011-03-26,15:00～15:59,0.125,0.117,0.120,
新宿 (Shinjuku),2011-03-26,14:00～14:59,0.123,0.117,0.121,
新宿 (Shinjuku),2011-03-26,13:00～13:59,0.125,0.117,0.121,
新宿 (Shinjuku),2011-03-26,12:00～12:59,0.125,0.118,0.122,
新宿 (Shinjuku),2011-03-26,11:00～11:59,0.125,0.117,0.122,
新宿 (Shinjuku),2011-03-26,10:00～10:59,0.125,0.119,0.122,
新宿 (Shinjuku),2011-03-26,09:00～09:59,0.125,0.119,0.122,
新宿 (Shinjuku),2011-03-26,08:00～08:59,0.126,0.120,0.123,
新宿 (Shinjuku),2011-03-26,07:00～07:59,0.128,0.120,0.124,
新宿 (Shinjuku),2011-03-26,06:00～06:59,0.128,0.120,0.124,
新宿 (Shinjuku),2011-03-26,05:00～05:59,0.128,0.121,0.124,
新宿 (Shinjuku),2011-03-26,04:00～04:59,0.130,0.121,0.126,
新宿 (Shinjuku),2011-03-26,03:00～03:59,0.129,0.123,0.126,
新宿 (Shinjuku),2011-03-26,02:00～02:59,0.130,0.123,0.126,
新宿 (Shinjuku),2011-03-26,01:00～01:59,0.129,0.121,0.125,
新宿 (Shinjuku),2011-03-26,00:00～00:59,0.128,0.121,0.125,
新宿 (Shinjuku),2011-03-25,23:00～23:59,0.129,0.122,0.125,
新宿 (Shinjuku),2011-03-25,22:00～22:59,0.129,0.122,0.125,
新宿 (Shinjuku),2011-03-25,21:00～21:59,0.129,0.122,0.126,
新宿 (Shinjuku),2011-03-25,20:00～20:59,0.129,0.123,0.126,
新宿 (Shinjuku),2011-03-25,19:00～19:59,0.130,0.123,0.126,
新宿 (Shinjuku),2011-03-25,18:00～18:59,0.130,0.124,0.126,
新宿 (Shinjuku),2011-03-25,17:00～17:59,0.132,0.124,0.127,
新宿 (Shinjuku),2011-03-25,16:00～16:59,0.133,0.123,0.127,
新宿 (Shinjuku),2011-03-25,15:00～15:59,0.131,0.126,0.129,
新宿 (Shinjuku),2011-03-25,14:00～14:59,0.133,0.127,0.129,
新宿 (Shinjuku),2011-03-25,13:00～13:59,0.133,0.126,0.130,
新宿 (Shinjuku),2011-03-25,12:00～12:59,0.134,0.127,0.130,
新宿 (Shinjuku),2011-03-25,11:00～11:59,0.133,0.126,0.129,
新宿 (Shinjuku),2011-03-25,10:00～10:59,0.138,0.128,0.132,
新宿 (Shinjuku),2011-03-25,09:00～09:59,0.135,0.129,0.132,
新宿 (Shinjuku),2011-03-25,08:00～08:59,0.135,0.129,0.132,
新宿 (Shinjuku),2011-03-25,07:00～07:59,0.137,0.129,0.132,
新宿 (Shinjuku),2011-03-25,06:00～06:59,0.137,0.129,0.132,
新宿 (Shinjuku),2011-03-25,05:00～05:59,0.135,0.129,0.132,
新宿 (Shinjuku),2011-03-25,04:00～04:59,0.136,0.130,0.132,
新宿 (Shinjuku),2011-03-25,03:00～03:59,0.137,0.129,0.133,
新宿 (Shinjuku),2011-03-25,02:00～02:59,0.138,0.131,0.134,
新宿 (Shinjuku),2011-03-25,01:00～01:59,0.137,0.131,0.134,
新宿 (Shinjuku),2011-03-25,00:00～00:59,0.138,0.131,0.134,
新宿 (Shinjuku),2011-03-24,23:00～23:59,0.138,0.132,0.134,
新宿 (Shinjuku),2011-03-24,22:00～22:59,0.139,0.131,0.135,
新宿 (Shinjuku),2011-03-24,21:00～21:59,0.138,0.130,0.135,
新宿 (Shinjuku),2011-03-24,20:00～20:59,0.138,0.129,0.134,
新宿 (Shinjuku),2011-03-24,19:00～19:59,0.137,0.130,0.134,
新宿 (Shinjuku),2011-03-24,18:00～18:59,0.137,0.131,0.134,
新宿 (Shinjuku),2011-03-24,17:00～17:59,0.139,0.132,0.135,
新宿 (Shinjuku),2011-03-24,16:00～16:59,0.139,0.132,0.136,
新宿 (Shinjuku),2011-03-24,15:00～15:59,0.140,0.133,0.136,
新宿 (Shinjuku),2011-03-24,14:00～14:59,0.139,0.132,0.136,
新宿 (Shinjuku),2011-03-24,13:00～13:59,0.142,0.133,0.137,
新宿 (Shinjuku),2011-03-24,12:00～12:59,0.141,0.134,0.138,
新宿 (Shinjuku),2011-03-24,11:00～11:59,0.142,0.134,0.138,
新宿 (Shinjuku),2011-03-24,10:00～10:59,0.141,0.133,0.138,
新宿 (Shinjuku),2011-03-24,09:00～09:59,0.143,0.134,0.138,
新宿 (Shinjuku),2011-03-24,08:00～08:59,0.142,0.136,0.139,
新宿 (Shinjuku),2011-03-24,07:00～07:59,0.142,0.134,0.139,
新宿 (Shinjuku),2011-03-24,06:00～06:59,0.142,0.133,0.139,
新宿 (Shinjuku),2011-03-24,05:00～05:59,0.143,0.136,0.139,
新宿 (Shinjuku),2011-03-24,04:00～04:59,0.143,0.136,0.139,
新宿 (Shinjuku),2011-03-24,03:00～03:59,0.144,0.137,0.139,
新宿 (Shinjuku),2011-03-24,02:00～02:59,0.143,0.136,0.139,
新宿 (Shinjuku),2011-03-24,01:00～01:59,0.143,0.137,0.140,
新宿 (Shinjuku),2011-03-24,00:00～00:59,0.144,0.137,0.140,
新宿 (Shinjuku),2011-03-23,23:00～23:59,0.145,0.137,0.141,
新宿 (Shinjuku),2011-03-23,22:00～22:59,0.147,0.139,0.143,
新宿 (Shinjuku),2011-03-23,21:00～21:59,0.150,0.141,0.146,
新宿 (Shinjuku),2011-03-23,20:00～20:59,0.152,0.144,0.148,
新宿 (Shinjuku),2011-03-23,19:00～19:59,0.154,0.143,0.147,
新宿 (Shinjuku),2011-03-23,18:00～18:59,0.147,0.139,0.144,
新宿 (Shinjuku),2011-03-23,17:00～17:59,0.150,0.139,0.145,
新宿 (Shinjuku),2011-03-23,16:00～16:59,0.150,0.139,0.146,
新宿 (Shinjuku),2011-03-23,15:00～15:59,0.146,0.139,0.143,
新宿 (Shinjuku),2011-03-23,14:00～14:59,0.147,0.138,0.143,
新宿 (Shinjuku),2011-03-23,13:00～13:59,0.148,0.138,0.144,
新宿 (Shinjuku),2011-03-23,12:00～12:59,0.148,0.140,0.144,
新宿 (Shinjuku),2011-03-23,11:00～11:59,0.147,0.141,0.145,
新宿 (Shinjuku),2011-03-23,10:00～10:59,0.150,0.143,0.145,
新宿 (Shinjuku),2011-03-23,09:00～09:59,0.149,0.142,0.146,
新宿 (Shinjuku),2011-03-23,08:00～08:59,0.150,0.143,0.146,
新宿 (Shinjuku),2011-03-23,07:00～07:59,0.150,0.143,0.146,
新宿 (Shinjuku),2011-03-23,06:00～06:59,0.151,0.142,0.147,
新宿 (Shinjuku),2011-03-23,05:00～05:59,0.151,0.143,0.147,
新宿 (Shinjuku),2011-03-23,04:00～04:59,0.152,0.142,0.148,
新宿 (Shinjuku),2011-03-23,03:00～03:59,0.153,0.145,0.149,
新宿 (Shinjuku),2011-03-23,02:00～02:59,0.158,0.149,0.152,
新宿 (Shinjuku),2011-03-23,01:00～01:59,0.158,0.147,0.152,
新宿 (Shinjuku),2011-03-23,00:00～00:59,0.158,0.150,0.154,
新宿 (Shinjuku),2011-03-22,23:00～23:59,0.158,0.150,0.154,
新宿 (Shinjuku),2011-03-22,22:00～22:59,0.160,0.146,0.151,
新宿 (Shinjuku),2011-03-22,21:00～21:59,0.155,0.146,0.151,
新宿 (Shinjuku),2011-03-22,20:00～20:59,0.166,0.140,0.155,
新宿 (Shinjuku),2011-03-22,19:00～19:59,0.145,0.136,0.141,
新宿 (Shinjuku),2011-03-22,18:00～18:59,0.144,0.136,0.140,
新宿 (Shinjuku),2011-03-22,17:00～17:59,0.142,0.135,0.138,
新宿 (Shinjuku),2011-03-22,16:00～16:59,0.143,0.135,0.138,
新宿 (Shinjuku),2011-03-22,15:00～15:59,0.142,0.136,0.139,
新宿 (Shinjuku),2011-03-22,14:00～14:59,0.142,0.132,0.137,
新宿 (Shinjuku),2011-03-22,13:00～13:59,0.134,0.126,0.130,
新宿 (Shinjuku),2011-03-22,12:00～12:59,0.134,0.124,0.128,
新宿 (Shinjuku),2011-03-22,11:00～11:59,0.132,0.124,0.128,
新宿 (Shinjuku),2011-03-22,10:00～10:59,0.131,0.124,0.127,
新宿 (Shinjuku),2011-03-22,09:00～09:59,0.132,0.123,0.127,
新宿 (Shinjuku),2011-03-22,08:00～08:59,0.133,0.125,0.128,
新宿 (Shinjuku),2011-03-22,07:00～07:59,0.134,0.126,0.129,
新宿 (Shinjuku),2011-03-22,06:00～06:59,0.134,0.126,0.131,
新宿 (Shinjuku),2011-03-22,05:00～05:59,0.136,0.129,0.133,
新宿 (Shinjuku),2011-03-22,04:00～04:59,0.136,0.131,0.133,
新宿 (Shinjuku),2011-03-22,03:00～03:59,0.138,0.130,0.134,
新宿 (Shinjuku),2011-03-22,02:00～02:59,0.138,0.130,0.134,
新宿 (Shinjuku),2011-03-22,01:00～01:59,0.140,0.133,0.137,
新宿 (Shinjuku),2011-03-22,00:00～00:59,0.148,0.136,0.142,
新宿 (Shinjuku),2011-03-21,23:00～23:59,0.147,0.137,0.141,
新宿 (Shinjuku),2011-03-21,22:00～22:59,0.145,0.136,0.141,
新宿 (Shinjuku),2011-03-21,21:00～21:59,0.140,0.133,0.137,
新宿 (Shinjuku),2011-03-21,20:00～20:59,0.141,0.131,0.137,
新宿 (Shinjuku),2011-03-21,19:00～19:59,0.137,0.131,0.134,
新宿 (Shinjuku),2011-03-21,18:00～18:59,0.139,0.130,0.135,
新宿 (Shinjuku),2011-03-21,17:00～17:59,0.139,0.128,0.134,
新宿 (Shinjuku),2011-03-21,16:00～16:59,0.131,0.120,0.125,
新宿 (Shinjuku),2011-03-21,15:00～15:59,0.126,0.113,0.118,
新宿 (Shinjuku),2011-03-21,14:00～14:59,0.116,0.106,0.112,
新宿 (Shinjuku),2011-03-21,13:00～13:59,0.111,0.104,0.108,
新宿 (Shinjuku),2011-03-21,12:00～12:59,0.120,0.106,0.113,
新宿 (Shinjuku),2011-03-21,11:00～11:59,0.120,0.101,0.109,
新宿 (Shinjuku),2011-03-21,10:00～10:59,0.105,0.0944,0.100,
新宿 (Shinjuku),2011-03-21,09:00～09:59,0.101,0.0910,0.0958,
新宿 (Shinjuku),2011-03-21,08:00～08:59,0.0930,0.0588,0.0703,
新宿 (Shinjuku),2011-03-21,07:00～07:59,0.0625,0.0539,0.0585,
新宿 (Shinjuku),2011-03-21,06:00～06:59,0.0591,0.0503,0.0537,
新宿 (Shinjuku),2011-03-21,05:00～05:59,0.0548,0.0493,0.0519,
新宿 (Shinjuku),2011-03-21,04:00～04:59,0.0553,0.0485,0.0513,
新宿 (Shinjuku),2011-03-21,03:00～03:59,0.0527,0.0474,0.0497,
新宿 (Shinjuku),2011-03-21,02:00～02:59,0.0522,0.0470,0.0497,
新宿 (Shinjuku),2011-03-21,01:00～01:59,0.0548,0.0475,0.0511,
新宿 (Shinjuku),2011-03-21,00:00～00:59,0.0529,0.0478,0.0505,
